This demonstration page uses our WeatherBlox Daily Observations layout. Learn more.

39.92423, -83.80882

Hourly Observations for September 28, 2019

Temp ( °F °C ) Dew Point ( °F °C ) Humidity (%) Winds ( mph kmh ) Pressure ( in mb ) Visibility ( mi km ) Precip ( " mm )
12:56 am 00:56 Clear 65 18.3 61 16.1 87 87 SE 3 6 29.85 1011 10 16.09344 0 0
1:56 am 01:56 Clear 69 20.6 63 17.2 81 81 SSW 5 7 29.88 1012 10 16.09344 0 0
2:56 am 02:56 Mostly Clear 71 21.7 64 17.8 79 79 SSW 5 7 29.91 1013 10 16.09344 0 0
3:56 am 03:56 Mostly Cloudy 71 21.7 64 17.8 79 79 SSW 5 7 29.91 1013 10 16.09344 0 0
4:56 am 04:56 Mostly Cloudy 70 21.1 65 18.3 84 84 NNW 6 9 29.94 1014 10 16.09344 0 0
5:56 am 05:56 Clear 65 18.3 63 17.2 93 93 E 6 9 29.94 1014 10 16.09344 0 0
6:56 am 06:56 Partly Cloudy 65 18.3 63 17.2 93 93 E 7 11 29.97 1015 10 16.09344 0 0
7:56 am 07:56 Sunny 65 18.3 63 17.2 93 93 ESE 9 15 30 1016 10 16.09344 0 0
8:56 am 08:56 Sunny 69 20.6 63 17.2 81 81 SE 8 13 30 1016 10 16.09344 0 0
9:56 am 09:56 Sunny 74 23.3 65 18.3 74 74 S 6 9 30.03 1017 10 16.09344 0 0
10:56 am 10:56 Sunny 80 26.7 68 20 67 67 S 8 13 30.03 1017 10 16.09344 0 0
11:56 am 11:56 Sunny 81 27.2 68 20 65 65 WSW 9 15 30.03 1017 10 16.09344 0 0
12:56 pm 12:56 Sunny 84 28.9 67 19.4 57 57 SW 12 19 30.03 1017 10 16.09344 0 0
1:56 pm 13:56 Sunny 84 28.9 67 19.4 57 57 SW 9 15 30.03 1017 10 16.09344 0 0
2:56 pm 14:56 Partly Cloudy 86 30 66 18.9 51 51 WSW 10 17 30 1016 10 16.09344 0 0
3:56 pm 15:56 Mostly Cloudy 88 31.1 66 18.9 48 48 WNW 10 17 30 1016 10 16.09344 0 0
4:56 pm 16:56 Cloudy 86 30 66 18.9 51 51 WNW 6 9 30.03 1017 10 16.09344 0 0
5:56 pm 17:56 Mostly Cloudy 80 26.7 68 20 67 67 N 16 26 30.06 1018 10 16.09344 0 0
6:56 pm 18:56 Mostly Sunny 77 25 66 18.9 69 69 N 15 24 30.09 1019 10 16.09344 0 0
7:56 pm 19:56 Clear 75 23.9 65 18.3 71 71 N 9 15 30.09 1019 10 16.09344 0 0
8:56 pm 20:56 Clear 72 22.2 66 18.9 82 82 NE 7 11 30.12 1020 10 16.09344 0 0
9:56 pm 21:56 Mostly Cloudy 71 21.7 66 18.9 84 84 NE 8 13 30.15 1021 10 16.09344 0 0
10:56 pm 22:56 Cloudy 70 21.1 64 17.8 82 82 ENE 8 13 30.15 1021 10 16.09344 0 0
11:56 pm 23:56 Clear 68 20 64 17.8 87 87 ENE 7 11 30.15 1021 10 16.09344 0 0

Powered by AerisWeather